Regional Weather Roundup
Issued by NWS Glasgow, MT

Home | Current Version | Previous Version | Text Only | Print | Product List | Glossary On
Versions: 1 2 3 4 5 6 7 8 9 10 11 12 13 14 15 16 17 18 19 20 21 22 23 24 25 26 27 28 29 30 31 32 33 34 35 36 37 38 39 40 41 42 43 44 45 46 47 48 49 50
000
ASUS45 KGGW 140315
RWRGGW
HOURLY WEATHER ROUNDUP FOR NORTHEAST MONTANA
NATIONAL WEATHER SERVICE GLASGOW MONTANA
900 PM MDT SUN JUL 13 2014

NOTE: "FAIR" INDICATES FEW OR NO CLOUDS BELOW 12,000 FEET WITH NO
SIGNIFICANT WEATHER AND/OR OBSTRUCTIONS TO VISISBILITY.

NORTHEAST MONTANA


CITY           SKY/WX    TMP DP  RH WIND       PRES   REMARKS
GLASGOW        CLEAR     68  41  37 NE12      30.18R
PLENTYWOOD       N/A     61  46  57 N8          N/A
WOLF POINT     CLEAR     68  38  33 N7        30.18R
JORDAN           N/A     76  46  34 N13       30.18R
WINNETT          N/A     77  48  35 NE10        N/A
SIDNEY         CLEAR     66  37  34 N12       30.18R
GLENDIVE       CLEAR     68  37  32 N13       30.18R
MALTA            N/A     75  51  43 NE6         N/A
SCOBEY           N/A     59  40  49 CALM      30.19R

FORT PECK REPORTS


CITY           SKY/WX    TMP DP  RH WIND       PRES   REMARKS
FORT PECK        N/A     69  39  33 N12         N/A
THE PINES        N/A     71  44  37 NE9         N/A

SOUTHEAST MONTANA


CITY           SKY/WX    TMP DP  RH WIND       PRES   REMARKS
BILLINGS       MOCLDY    79  46  31 NE7       30.20R
MILES CITY     CLEAR     75  51  43 N9        30.15R
BAKER          CLEAR     64  47  53 NE7       30.17R
LIVINGSTON     PTCLDY    78  45  30 E15       30.23R

CENTRAL MONTANA


CITY           SKY/WX    TMP DP  RH WIND       PRES   REMARKS
HAVRE          CLEAR     78  51  38 NE15      30.20R
LEWISTOWN      CLEAR     75  46  35 NE5       30.26R
GREAT FALLS    CLEAR     79  44  28 E9        30.21R
CUT BANK       CLEAR     74  52  46 NE10      30.26R
HELENA         PTCLDY    81  46  29 N6        30.18R
BUTTE          MOCLDY    78  48  34 NW3       30.28S
BOZEMAN        PTCLDY    77  55  46 S10       30.20S

WESTERN MONTANA


CITY           SKY/WX    TMP DP  RH WIND       PRES   REMARKS
MISSOULA       PTCLDY    87  41  19 VRB7      30.10R
KALISPELL      NOT AVBL

NORTH DAKOTA


CITY           SKY/WX    TMP DP  RH WIND       PRES   REMARKS
WILLISTON      CLEAR     64  44  48 N12       30.15R
DICKINSON      CLEAR     60  41  49 N7        30.12R
MINOT          CLOUDY    61  46  57 NW12      30.08R
BISMARCK       CLEAR     66  44  45 N13G20    30.07R

SOUTHERN SASKATCHEWAN


CITY           SKY/WX    TMP DP  RH WIND       PRES   REMARKS
REGINA         PTCLDY    61  46  59 N9        30.22R
ESTEVAN        MOCLDY    61  48  63 N13       30.16R
SWIFT CURRENT  CLEAR     59  45  58 NE9       30.25R



USA.gov is the U.S. government's official web portal to all federal, state and local government web resources and services.